Regional Weather Roundup
Issued by NWS

Home | Current Version | Previous Version | Graphics & Text | Print | Product List | Glossary On
Versions: 1 2 3 4 5 6 7 8 9 10 11 12 13 14 15 16 17 18 19 20 21 22 23 24 25 26 27
000
ASUS45 KSLC 270110
RWRUT

UTAH REGIONAL WEATHER ROUNDUP
NATIONAL WEATHER SERVICE SALT LAKE CITY UT
700 PM MDT SUN MAR 26 2017

UTZ001>011-023>025-270200-

NORTHERN UTAH

CITY           SKY/WX    TMP DP  RH WIND       PRES   REMARKS
BRIGHAM CITY     N/A     51  27  39 CALM      29.99R
HILL AFB       CLOUDY    49  26  41 CALM      29.98R
LOGAN          CLOUDY    51  28  41 S5        29.98R
OGDEN          CLOUDY    48  31  51 NW5       29.97R
SALT LAKE CITY CLOUDY    53  30  41 S9        29.97R
WENDOVER       CLOUDY    54  33  45 SE14      29.93S
HEBER CITY     MOCLDY    46  25  42 SW12      29.96S

$$

UTZ011>015-024>027-270200-

CENTRAL/NORTHEAST UTAH

CITY           SKY/WX    TMP DP  RH WIND       PRES   REMARKS
PROVO AIRPORT  MOCLDY    52  25  35 VRB5      29.99S
MOAB/CANYONLAN CLOUDY    58  20  22 NW6       29.92S
DELTA          PTCLDY    50  32  50 SE3       29.99S
PRICE          MOCLDY    52  17  25 VRB5      29.95F
RICHFIELD      CLOUDY    50  30  46 NE6       30.00S
ROOSEVELT      CLOUDY    54  28  37 CALM      29.97S
VERNAL         CLOUDY    51  29  42 S5        29.95R

$$

UTZ013>016-019>022-027-270200-

SOUTHERN UTAH

CITY           SKY/WX    TMP DP  RH WIND       PRES   REMARKS
BRYCE CANYON   MOCLDY    48  21  34 W10       30.03R
CEDAR CITY     CLEAR     52  27  38 NW3       29.99R
MILFORD        CLOUDY    53  30  41 S9        29.97S
ST GEORGE      MOCLDY    67  28  23 W9        29.94R
HANKSVILLE     CLOUDY    59  23  25 E7        29.94F
KANAB          CLEAR     57  25  28 SW9       30.03R
BLANDING       MOCLDY    54  25  33 SW13      30.04R

$$

REGIONAL REPORTS     COLORADO/ARIZONA

CITY           SKY/WX    TMP DP  RH WIND       PRES   REMARKS
CRAIG, CO      CLOUDY    47  21  35 W5        29.96S
GRAND JUNCTION CLOUDY    57  26  30 NW10      29.93R
RIFLE, CO      CLOUDY    55  24  30 W10       29.94R
MONTROSE, CO   CLOUDY    53  35  50 SE10      29.99R
CORTEZ, CO     CLOUDY    53  31  42 W6        29.99R
COLORADO CITY    N/A     59  30  33 NW3       30.03R
PAGE, AZ       MOCLDY    63  38  39 E6        29.93F
GRAND CANYON   MOCLDY    50  24  36 NW6       30.05R
KINGMAN, AZ    CLEAR     67  16  14 SW12      29.96S
FLAGSTAFF, AZ  PTCLDY    50  22  33 S13       30.05R

$$

REGIONAL REPORTS    NEVADA/IDAHO/WYOMING

CITY           SKY/WX    TMP DP  RH WIND       PRES   REMARKS
LAS VEGAS, NV  PTSUNNY   73  30  20 E15       29.86F
ELY, NY        NOT AVBL
ELKO, NV       MOSUNNY   49  30  48 SW13      29.93F
POCATELLO, ID  CLOUDY    49  31  49 S8        29.93S
BURLEY, ID     CLOUDY    46  35  65 W10       29.94R
EVANSTON, WY   CLOUDY    39  24  55 W9        29.98S WCI  33
ROCK SPRINGS,  CLOUDY    44  22  41 W12       29.96R
KEMMERER, WY     N/A     37  27  65 NW9       29.98S WCI  31

$$




USA.gov is the U.S. government's official web portal to all federal, state and local government web resources and services.